Terminal Aerodrome Forecast
Issued by NWS Wilmington, OH

Current Version | Previous Version | Text Only | Print | Product List | Glossary Off
Versions: 1 2 3 4 5 6 7 8 9 10 11 12 13 14 15 16 17 18 19 20 21 22 23 24 25 26 27

000
FTUS41 KILN 301700
TAFCMH
TAF
KCMH 301731Z 3018/3118 35016G25KT P6SM VCSH SCT025 OVC035
     FM302200 33012KT P6SM BKN040
     FM310000 33004KT P6SM FEW040
     FM310800 VRB03KT P6SM SKC
     FM311300 21007KT P6SM SCT250=

USA.gov is the U.S. government's official web portal to all federal, state and local government web resources and services.